Time,TemperatureF,DewpointF,PressureIn,WindDirection,WindDirectionDegrees,WindSpeedMPH,WindSpeedGustMPH,Humidity,HourlyPrecipIn,Conditions,Clouds,dailyrainin,SoftwareType,DateUTC
2013-03-21 00:00:00,66.8,60.4,29.85,WNW,291,2.0,4.0,80,0.00,,CLR,0.00,VWS V14.01,2013-03-21 04:00:00,
2013-03-21 00:01:00,66.8,60.4,29.86,West,279,5.0,7.0,80,0.00,,SCT100,0.00,VWS V14.01,2013-03-21 04:01:00,
2013-03-21 00:06:00,66.4,60.4,29.86,WNW,287,3.0,7.0,81,0.00,,SCT100,0.00,VWS V14.01,2013-03-21 04:06:00,
2013-03-21 00:11:00,66.2,60.2,29.85,NW,317,5.0,8.0,81,0.00,,SCT100,0.00,VWS V14.01,2013-03-21 04:11:00,
2013-03-21 00:16:00,66.0,59.7,29.85,NNW,330,0.0,8.0,80,0.00,,SCT100,0.00,VWS V14.01,2013-03-21 04:16:00,
2013-03-21 00:21:00,65.9,59.2,29.85,WNW,294,3.0,8.0,79,0.00,,SCT100,0.00,VWS V14.01,2013-03-21 04:21:00,
2013-03-21 00:26:00,65.8,59.1,29.85,NW,310,4.0,8.0,79,0.00,,SCT100,0.00,VWS V14.01,2013-03-21 04:26:00,
2013-03-21 00:31:00,65.7,59.0,29.85,NW,308,0.0,8.0,79,0.00,,SCT100,0.00,VWS V14.01,2013-03-21 04:31:00,
2013-03-21 00:36:00,65.6,58.9,29.85,WNW,292,2.0,8.0,79,0.00,,SCT100,0.00,VWS V14.01,2013-03-21 04:36:00,
2013-03-21 00:41:00,65.6,58.9,29.85,WNW,291,0.0,8.0,79,0.00,,BKN022,0.00,VWS V14.01,2013-03-21 04:41:00,
2013-03-21 00:46:00,65.6,58.9,29.84,WNW,289,0.0,8.0,79,0.00,,BKN022,0.00,VWS V14.01,2013-03-21 04:46:00,
2013-03-21 00:51:00,65.5,58.5,29.85,WNW,293,1.0,8.0,78,0.00,,BKN022,0.00,VWS V14.01,2013-03-21 04:51:00,
2013-03-21 00:56:00,65.5,58.5,29.85,WNW,293,0.0,8.0,78,0.00,,BKN022,0.00,VWS V14.01,2013-03-21 04:56:00,
2013-03-21 01:01:00,65.5,58.1,29.85,SSW,193,2.0,6.0,77,0.00,,BKN026,0.00,VWS V14.01,2013-03-21 05:01:00,
2013-03-21 01:06:00,65.4,58.0,29.85,SW,234,0.0,6.0,77,0.00,,BKN026,0.00,VWS V14.01,2013-03-21 05:06:00,
2013-03-21 01:11:00,65.1,58.1,29.86,West,267,0.0,6.0,78,0.00,,BKN026,0.00,VWS V14.01,2013-03-21 05:11:00,
2013-03-21 01:16:00,65.0,58.0,29.86,WSW,240,6.0,7.0,78,0.00,,BKN026,0.00,VWS V14.01,2013-03-21 05:16:00,
2013-03-21 01:22:00,64.7,57.7,29.85,WSW,237,4.0,8.0,78,0.00,,FEW019,0.00,VWS V14.01,2013-03-21 05:22:00,
2013-03-21 01:27:00,64.5,57.5,29.85,SW,230,0.0,8.0,78,0.00,,FEW019,0.00,VWS V14.01,2013-03-21 05:27:00,
2013-03-21 01:32:00,64.4,57.8,29.86,SW,228,2.0,8.0,79,0.00,,FEW019,0.00,VWS V14.01,2013-03-21 05:32:00,
2013-03-21 01:37:00,64.2,57.9,29.86,SW,217,0.0,8.0,80,0.00,,FEW019,0.00,VWS V14.01,2013-03-21 05:37:00,
2013-03-21 01:42:00,64.1,57.5,29.85,SW,229,1.0,8.0,79,0.00,,FEW019,0.00,VWS V14.01,2013-03-21 05:42:00,
2013-03-21 01:47:00,63.1,57.2,29.86,NW,321,1.0,8.0,81,0.00,,FEW019,0.00,VWS V14.01,2013-03-21 05:47:00,
2013-03-21 01:52:00,62.1,56.5,29.87,NNW,327,4.0,8.0,82,0.00,,FEW019,0.00,VWS V14.01,2013-03-21 05:52:00,
2013-03-21 01:57:00,61.7,56.8,29.87,NW,317,2.0,8.0,84,0.00,,FEW019,0.00,VWS V14.01,2013-03-21 05:57:00,
2013-03-21 02:02:00,61.6,56.7,29.86,NNW,329,6.0,6.0,84,0.00,,BKN049,0.00,VWS V14.01,2013-03-21 06:02:00,
2013-03-21 02:07:00,61.6,56.7,29.87,NW,316,0.0,7.0,84,0.00,,BKN049,0.00,VWS V14.01,2013-03-21 06:07:00,
2013-03-21 02:12:00,61.5,57.0,29.87,NW,324,2.0,7.0,85,0.00,,BKN049,0.00,VWS V14.01,2013-03-21 06:12:00,
2013-03-21 02:17:00,61.6,57.0,29.86,NW,316,1.0,7.0,85,0.00,,BKN049,0.00,VWS V14.01,2013-03-21 06:17:00,
2013-03-21 02:22:00,61.6,57.0,29.86,NW,315,0.0,7.0,85,0.00,,BKN049,0.00,VWS V14.01,2013-03-21 06:22:00,
2013-03-21 02:27:00,61.6,57.0,29.86,WNW,299,0.0,7.0,85,0.00,,BKN049,0.00,VWS V14.01,2013-03-21 06:27:00,
2013-03-21 02:32:00,61.7,57.2,29.86,West,277,0.0,7.0,85,0.00,,BKN049,0.00,VWS V14.01,2013-03-21 06:32:00,
2013-03-21 02:37:00,61.7,57.2,29.85,West,276,0.0,7.0,85,0.00,,BKN045,0.00,VWS V14.01,2013-03-21 06:37:00,
2013-03-21 02:42:00,61.7,57.5,29.85,West,276,2.0,7.0,86,0.00,,BKN045,0.00,VWS V14.01,2013-03-21 06:42:00,
2013-03-21 02:47:00,61.7,57.5,29.86,WNW,303,4.0,7.0,86,0.00,,BKN045,0.00,VWS V14.01,2013-03-21 06:47:00,
2013-03-21 02:52:00,61.7,57.5,29.86,WNW,285,2.0,7.0,86,0.00,,BKN045,0.00,VWS V14.01,2013-03-21 06:52:00,
2013-03-21 02:57:00,61.7,57.5,29.86,WNW,292,2.0,7.0,86,0.00,,BKN045,0.00,VWS V14.01,2013-03-21 06:57:00,
2013-03-21 03:02:00,61.6,57.4,29.86,WNW,291,4.0,4.0,86,0.00,,OVC048,0.00,VWS V14.01,2013-03-21 07:02:00,
2013-03-21 03:07:00,61.5,57.3,29.87,WNW,291,2.0,4.0,86,0.00,,OVC048,0.00,VWS V14.01,2013-03-21 07:07:00,
2013-03-21 03:12:00,61.5,57.0,29.87,WNW,295,2.0,4.0,85,0.00,,OVC048,0.00,VWS V14.01,2013-03-21 07:12:00,
2013-03-21 03:17:00,61.5,57.0,29.86,West,271,0.0,5.0,85,0.00,,OVC048,0.00,VWS V14.01,2013-03-21 07:17:00,
2013-03-21 03:22:00,61.5,57.0,29.87,WNW,301,4.0,9.0,85,0.00,,OVC048,0.00,VWS V14.01,2013-03-21 07:22:00,
2013-03-21 03:27:00,61.5,57.0,29.86,NW,326,1.0,9.0,85,0.00,,OVC048,0.00,VWS V14.01,2013-03-21 07:27:00,
2013-03-21 03:32:00,61.4,56.9,29.86,NW,326,0.0,9.0,85,0.00,,OVC048,0.00,VWS V14.01,2013-03-21 07:32:00,
2013-03-21 03:37:00,61.4,56.9,29.86,NW,307,5.0,9.0,85,0.00,,OVC048,0.00,VWS V14.01,2013-03-21 07:37:00,
2013-03-21 03:42:00,61.5,57.0,29.88,WNW,303,4.0,9.0,85,0.00,,OVC048,0.00,VWS V14.01,2013-03-21 07:42:00,
2013-03-21 03:47:00,61.5,56.6,29.88,NW,315,7.0,12.0,84,0.00,,OVC048,0.00,VWS V14.01,2013-03-21 07:47:00,
2013-03-21 03:52:00,61.5,56.6,29.88,NW,310,3.0,12.0,84,0.00,,OVC048,0.00,VWS V14.01,2013-03-21 07:52:00,
2013-03-21 03:57:00,61.5,56.6,29.88,NW,313,5.0,12.0,84,0.00,,OVC048,0.00,VWS V14.01,2013-03-21 07:57:00,
2013-03-21 04:02:00,61.3,56.4,29.86,NW,310,7.0,10.0,84,0.00,,BKN055,0.00,VWS V14.01,2013-03-21 08:02:00,
2013-03-21 04:07:00,61.2,56.3,29.87,NW,311,3.0,10.0,84,0.00,,BKN055,0.00,VWS V14.01,2013-03-21 08:07:00,
2013-03-21 04:12:00,61.2,56.3,29.87,NW,316,3.0,10.0,84,0.00,,BKN055,0.00,VWS V14.01,2013-03-21 08:12:00,
2013-03-21 04:17:00,61.2,56.3,29.87,NW,315,4.0,10.0,84,0.00,,BKN055,0.00,VWS V14.01,2013-03-21 08:17:00,
2013-03-21 04:22:00,61.1,56.2,29.87,NW,315,3.0,10.0,84,0.00,,BKN055,0.00,VWS V14.01,2013-03-21 08:22:00,
2013-03-21 04:27:00,61.0,56.1,29.87,NW,320,4.0,10.0,84,0.00,,BKN055,0.00,VWS V14.01,2013-03-21 08:27:00,
2013-03-21 04:32:00,60.9,55.7,29.87,WNW,293,5.0,10.0,83,0.00,,BKN055,0.00,VWS V14.01,2013-03-21 08:32:00,
2013-03-21 04:37:00,60.6,55.8,29.86,NNW,330,1.0,10.0,84,0.00,,BKN055,0.00,VWS V14.01,2013-03-21 08:37:00,
2013-03-21 04:42:00,60.3,55.5,29.87,WNW,286,2.0,10.0,84,0.00,,BKN055,0.00,VWS V14.01,2013-03-21 08:42:00,
2013-03-21 04:47:00,60.2,55.7,29.87,WNW,301,0.0,10.0,85,0.00,,BKN055,0.00,VWS V14.01,2013-03-21 08:47:00,
2013-03-21 04:52:00,60.1,55.3,29.88,NW,311,3.0,10.0,84,0.00,,BKN055,0.00,VWS V14.01,2013-03-21 08:52:00,
2013-03-21 04:57:00,60.1,55.6,29.87,WNW,295,2.0,10.0,85,0.00,,BKN055,0.00,VWS V14.01,2013-03-21 08:57:00,
2013-03-21 05:02:00,60.0,55.2,29.87,WNW,303,5.0,6.0,84,0.00,,BKN049,0.00,VWS V14.01,2013-03-21 09:02:00,
2013-03-21 05:07:00,59.9,55.4,29.88,NW,310,8.0,9.0,85,0.00,,BKN049,0.00,VWS V14.01,2013-03-21 09:07:00,
2013-03-21 05:12:00,59.7,55.2,29.88,NW,314,6.0,9.0,85,0.00,,BKN049,0.00,VWS V14.01,2013-03-21 09:12:00,
2013-03-21 05:17:00,59.5,54.7,29.87,NNW,328,0.0,9.0,84,0.00,,BKN049,0.00,VWS V14.01,2013-03-21 09:17:00,
2013-03-21 05:22:00,58.9,54.4,29.88,NW,312,6.0,9.0,85,0.00,,BKN049,0.00,VWS V14.01,2013-03-21 09:22:00,
2013-03-21 05:27:00,58.4,54.2,29.87,WNW,302,4.0,9.0,86,0.00,,BKN049,0.00,VWS V14.01,2013-03-21 09:27:00,
2013-03-21 05:32:00,58.1,54.3,29.88,NW,317,1.0,9.0,87,0.00,,BKN049,0.00,VWS V14.01,2013-03-21 09:32:00,
2013-03-21 05:37:00,57.9,54.1,29.88,NW,313,6.0,9.0,87,0.00,,BKN049,0.00,VWS V14.01,2013-03-21 09:37:00,
2013-03-21 05:42:00,57.7,53.9,29.88,NW,318,5.0,9.0,87,0.00,,BKN049,0.00,VWS V14.01,2013-03-21 09:42:00,
2013-03-21 05:47:00,57.6,53.8,29.89,NW,323,3.0,9.0,87,0.00,,BKN049,0.00,VWS V14.01,2013-03-21 09:47:00,
2013-03-21 05:52:00,57.6,53.8,29.88,WNW,303,0.0,9.0,87,0.00,,BKN049,0.00,VWS V14.01,2013-03-21 09:52:00,
2013-03-21 05:57:00,57.5,53.7,29.89,WNW,300,3.0,9.0,87,0.00,,BKN049,0.00,VWS V14.01,2013-03-21 09:57:00,
2013-03-21 06:02:00,57.5,53.7,29.91,NW,305,1.0,5.0,87,0.00,,CLR,0.00,VWS V14.01,2013-03-21 10:02:00,
2013-03-21 06:07:00,57.4,53.6,29.89,WNW,301,2.0,6.0,87,0.00,,CLR,0.00,VWS V14.01,2013-03-21 10:07:00,
2013-03-21 06:12:00,57.3,53.5,29.90,WNW,283,3.0,6.0,87,0.00,,CLR,0.00,VWS V14.01,2013-03-21 10:12:00,
2013-03-21 06:17:00,57.3,53.5,29.90,NW,310,2.0,6.0,87,0.00,,CLR,0.00,VWS V14.01,2013-03-21 10:17:00,
2013-03-21 06:22:00,57.1,53.0,29.90,NW,310,2.0,6.0,86,0.00,,CLR,0.00,VWS V14.01,2013-03-21 10:22:00,
2013-03-21 06:27:00,57.0,53.2,29.90,NW,306,0.0,6.0,87,0.00,,CLR,0.00,VWS V14.01,2013-03-21 10:27:00,
2013-03-21 06:32:00,56.9,53.1,29.90,WNW,298,1.0,6.0,87,0.00,,CLR,0.00,VWS V14.01,2013-03-21 10:32:00,
2013-03-21 06:37:00,56.9,52.8,29.91,NW,305,1.0,6.0,86,0.00,,CLR,0.00,VWS V14.01,2013-03-21 10:37:00,
2013-03-21 06:42:00,56.8,52.7,29.91,WNW,297,1.0,6.0,86,0.00,,CLR,0.00,VWS V14.01,2013-03-21 10:42:00,
2013-03-21 06:47:00,56.8,52.7,29.91,WNW,298,2.0,6.0,86,0.00,,CLR,0.00,VWS V14.01,2013-03-21 10:47:00,
2013-03-21 06:53:00,56.8,52.3,29.91,NW,313,0.0,6.0,85,0.00,,CLR,0.00,VWS V14.01,2013-03-21 10:53:00,
2013-03-21 06:58:00,56.6,52.2,29.91,NW,311,0.0,6.0,85,0.00,,CLR,0.00,VWS V14.01,2013-03-21 10:58:00,
2013-03-21 07:03:00,56.5,52.0,29.92,NW,311,2.0,3.0,85,0.00,,CLR,0.00,VWS V14.01,2013-03-21 11:03:00,
2013-03-21 07:08:00,56.3,51.9,29.92,NW,317,3.0,5.0,85,0.00,,CLR,0.00,VWS V14.01,2013-03-21 11:08:00,
2013-03-21 07:13:00,56.2,51.8,29.92,NW,316,0.0,5.0,85,0.00,,CLR,0.00,VWS V14.01,2013-03-21 11:13:00,
2013-03-21 07:18:00,56.2,51.8,29.92,NW,312,2.0,5.0,85,0.00,,CLR,0.00,VWS V14.01,2013-03-21 11:18:00,
2013-03-21 07:23:00,56.0,51.6,29.93,NW,317,2.0,5.0,85,0.00,,CLR,0.00,VWS V14.01,2013-03-21 11:23:00,
2013-03-21 07:28:00,56.0,51.6,29.92,NW,317,1.0,5.0,85,0.00,,CLR,0.00,VWS V14.01,2013-03-21 11:28:00,
2013-03-21 07:33:00,55.9,51.5,29.91,NW,314,0.0,6.0,85,0.00,,CLR,0.00,VWS V14.01,2013-03-21 11:33:00,
2013-03-21 07:38:00,55.8,51.0,29.92,NNW,327,0.0,6.0,84,0.00,,CLR,0.00,VWS V14.01,2013-03-21 11:38:00,
2013-03-21 07:43:00,55.7,51.3,29.92,NW,305,0.0,6.0,85,0.00,,CLR,0.00,VWS V14.01,2013-03-21 11:43:00,
2013-03-21 07:48:00,55.6,51.2,29.93,WNW,296,2.0,6.0,85,0.00,,CLR,0.00,VWS V14.01,2013-03-21 11:48:00,
2013-03-21 07:53:00,55.5,50.8,29.93,West,278,2.0,6.0,84,0.00,,CLR,0.00,VWS V14.01,2013-03-21 11:53:00,
2013-03-21 07:58:00,55.5,51.1,29.93,NW,304,0.0,6.0,85,0.00,,CLR,0.00,VWS V14.01,2013-03-21 11:58:00,
2013-03-21 08:03:00,55.4,51.0,29.94,NW,306,5.0,6.0,85,0.00,,CLR,0.00,VWS V14.01,2013-03-21 12:03:00,
2013-03-21 08:08:00,55.3,50.9,29.93,NW,315,0.0,6.0,85,0.00,,CLR,0.00,VWS V14.01,2013-03-21 12:08:00,
2013-03-21 08:13:00,55.3,51.2,29.92,NNW,331,3.0,7.0,86,0.00,,CLR,0.00,VWS V14.01,2013-03-21 12:13:00,
2013-03-21 08:18:00,55.2,50.8,29.93,WNW,303,1.0,9.0,85,0.00,,CLR,0.00,VWS V14.01,2013-03-21 12:18:00,
2013-03-21 08:23:00,55.3,50.9,29.93,NW,322,3.0,9.0,85,0.00,,CLR,0.00,VWS V14.01,2013-03-21 12:23:00,
2013-03-21 08:28:00,55.3,50.9,29.94,NW,313,4.0,9.0,85,0.01,,CLR,0.01,VWS V14.01,2013-03-21 12:28:00,
2013-03-21 08:33:00,55.5,50.8,29.93,NNW,343,1.0,9.0,84,0.01,,CLR,0.01,VWS V14.01,2013-03-21 12:33:00,
2013-03-21 08:38:00,55.8,50.7,29.93,NNW,329,4.0,10.0,83,0.01,,CLR,0.01,VWS V14.01,2013-03-21 12:38:00,
2013-03-21 08:43:00,56.0,50.6,29.93,NW,318,7.0,10.0,82,0.01,,CLR,0.01,VWS V14.01,2013-03-21 12:43:00,
2013-03-21 08:48:00,56.2,50.5,29.93,NW,323,7.0,10.0,81,0.01,,CLR,0.01,VWS V14.01,2013-03-21 12:48:00,
2013-03-21 08:53:00,56.4,50.3,29.93,NNW,342,3.0,10.0,80,0.01,,CLR,0.01,VWS V14.01,2013-03-21 12:53:00,
2013-03-21 08:58:00,56.8,50.4,29.94,NW,318,5.0,10.0,79,0.01,,CLR,0.01,VWS V14.01,2013-03-21 12:58:00,
2013-03-21 09:03:00,57.3,50.2,29.95,NE,41,3.0,9.0,77,0.01,,CLR,0.01,VWS V14.01,2013-03-21 13:03:00,
2013-03-21 09:08:00,57.6,49.8,29.94,NW,312,7.0,10.0,75,0.01,,CLR,0.01,VWS V14.01,2013-03-21 13:08:00,
2013-03-21 09:13:00,57.9,49.3,29.95,NW,323,0.0,10.0,73,0.01,,CLR,0.01,VWS V14.01,2013-03-21 13:13:00,
2013-03-21 09:18:00,58.0,48.7,29.95,NW,304,5.0,10.0,71,0.01,,CLR,0.01,VWS V14.01,2013-03-21 13:18:00,
2013-03-21 09:23:00,58.4,48.3,29.95,NNW,328,3.0,10.0,69,0.01,,CLR,0.01,VWS V14.01,2013-03-21 13:23:00,
2013-03-21 09:28:00,58.7,47.8,29.96,WNW,300,4.0,10.0,67,0.01,,CLR,0.01,VWS V14.01,2013-03-21 13:28:00,
2013-03-21 09:33:00,59.1,47.8,29.96,NNW,330,2.0,11.0,66,0.01,,CLR,0.01,VWS V14.01,2013-03-21 13:33:00,
2013-03-21 09:38:00,59.5,47.7,29.97,NW,324,4.0,11.0,65,0.01,,CLR,0.01,VWS V14.01,2013-03-21 13:38:00,
2013-03-21 09:43:00,59.6,46.2,29.96,NW,313,3.0,11.0,61,0.01,,CLR,0.01,VWS V14.01,2013-03-21 13:43:00,
2013-03-21 09:48:00,59.8,47.2,29.95,NW,315,8.0,11.0,63,0.01,,CLR,0.01,VWS V14.01,2013-03-21 13:48:00,
2013-03-21 09:53:00,60.3,46.4,29.97,West,281,4.0,11.0,60,0.01,,CLR,0.01,VWS V14.01,2013-03-21 13:53:00,
2013-03-21 09:58:00,60.7,45.8,29.95,NW,324,6.0,11.0,58,0.01,,CLR,0.01,VWS V14.01,2013-03-21 13:58:00,
2013-03-21 10:03:00,60.8,44.5,29.96,North,1,7.0,11.0,55,0.00,,CLR,0.01,VWS V14.01,2013-03-21 14:03:00,
2013-03-21 10:08:00,61.0,46.6,29.96,WNW,302,4.0,12.0,59,0.00,,CLR,0.01,VWS V14.01,2013-03-21 14:08:00,
2013-03-21 10:13:00,61.4,45.6,29.96,NW,304,3.0,12.0,56,0.00,,CLR,0.01,VWS V14.01,2013-03-21 14:13:00,
2013-03-21 10:18:00,61.7,43.4,29.97,NNW,331,4.0,12.0,51,0.00,,CLR,0.01,VWS V14.01,2013-03-21 14:18:00,
2013-03-21 10:23:00,61.8,44.0,29.97,North,357,4.0,12.0,52,0.00,,CLR,0.01,VWS V14.01,2013-03-21 14:23:00,
2013-03-21 10:28:00,62.3,44.0,29.96,WNW,296,6.0,12.0,51,0.00,,CLR,0.01,VWS V14.01,2013-03-21 14:28:00,
2013-03-21 10:33:00,62.7,43.8,29.97,NNW,348,4.0,12.0,50,0.00,,CLR,0.01,VWS V14.01,2013-03-21 14:33:00,
2013-03-21 10:38:00,62.7,41.6,29.97,NW,318,6.0,12.0,46,0.00,,CLR,0.01,VWS V14.01,2013-03-21 14:38:00,
2013-03-21 10:43:00,62.6,43.2,29.96,North,354,0.0,12.0,49,0.00,,CLR,0.01,VWS V14.01,2013-03-21 14:43:00,
2013-03-21 10:48:00,62.8,42.8,29.96,North,349,3.0,12.0,48,0.00,,CLR,0.01,VWS V14.01,2013-03-21 14:48:00,
2013-03-21 10:53:00,62.8,42.3,29.95,North,352,3.0,14.0,47,0.00,,CLR,0.01,VWS V14.01,2013-03-21 14:53:00,
2013-03-21 10:58:00,62.9,41.3,29.96,North,1,6.0,14.0,45,0.00,,CLR,0.01,VWS V14.01,2013-03-21 14:58:00,
2013-03-21 11:03:00,62.9,41.8,29.96,North,356,7.0,10.0,46,0.00,,CLR,0.01,VWS V14.01,2013-03-21 15:03:00,
2013-03-21 11:08:00,63.0,40.8,29.95,WNW,300,0.0,10.0,44,0.00,,CLR,0.01,VWS V14.01,2013-03-21 15:08:00,
2013-03-21 11:13:00,63.4,40.5,29.96,NNE,19,2.0,11.0,43,0.00,,CLR,0.01,VWS V14.01,2013-03-21 15:13:00,
2013-03-21 11:18:00,63.5,40.0,29.97,North,5,4.0,11.0,42,0.00,,CLR,0.01,VWS V14.01,2013-03-21 15:18:00,
2013-03-21 11:23:00,63.3,39.8,29.95,NE,46,5.0,11.0,42,0.00,,CLR,0.01,VWS V14.01,2013-03-21 15:23:00,
2013-03-21 11:28:00,63.2,40.3,29.96,WNW,302,6.0,11.0,43,0.00,,CLR,0.01,VWS V14.01,2013-03-21 15:28:00,
2013-03-21 11:33:00,63.5,38.8,29.96,NNE,25,4.0,11.0,40,0.00,,CLR,0.01,VWS V14.01,2013-03-21 15:33:00,
2013-03-21 11:38:00,63.6,40.7,29.97,NW,305,3.0,11.0,43,0.00,,CLR,0.01,VWS V14.01,2013-03-21 15:38:00,
2013-03-21 11:43:00,63.6,39.5,29.96,North,11,9.0,11.0,41,0.00,,CLR,0.01,VWS V14.01,2013-03-21 15:43:00,
2013-03-21 11:48:00,63.6,40.1,29.97,North,351,3.0,11.0,42,0.00,,CLR,0.01,VWS V14.01,2013-03-21 15:48:00,
2013-03-21 11:53:00,63.5,40.6,29.97,NW,320,0.0,13.0,43,0.00,,CLR,0.01,VWS V14.01,2013-03-21 15:53:00,
2013-03-21 11:58:00,64.1,38.7,29.97,North,10,5.0,13.0,39,0.00,,CLR,0.01,VWS V14.01,2013-03-21 15:58:00,
2013-03-21 12:03:00,64.1,41.2,29.96,WNW,282,2.0,9.0,43,0.00,,CLR,0.01,VWS V14.01,2013-03-21 16:03:00,
2013-03-21 12:08:00,64.6,40.4,29.97,North,0,4.0,10.0,41,0.00,,CLR,0.01,VWS V14.01,2013-03-21 16:08:00,
2013-03-21 12:13:00,64.1,41.2,29.97,North,8,7.0,12.0,43,0.00,,CLR,0.01,VWS V14.01,2013-03-21 16:13:00,
2013-03-21 12:18:00,64.4,42.6,29.97,NNW,337,0.0,12.0,45,0.00,,CLR,0.01,VWS V14.01,2013-03-21 16:18:00,
2013-03-21 12:23:00,64.3,41.3,29.97,North,8,0.0,12.0,43,0.00,,CLR,0.01,VWS V14.01,2013-03-21 16:23:00,
2013-03-21 12:28:00,64.3,40.7,29.97,North,9,7.0,12.0,42,0.00,,CLR,0.01,VWS V14.01,2013-03-21 16:28:00,
2013-03-21 12:33:00,64.4,41.4,29.98,North,352,7.0,12.0,43,0.00,,CLR,0.01,VWS V14.01,2013-03-21 16:33:00,
2013-03-21 12:38:00,64.5,39.7,29.97,North,4,4.0,12.0,40,0.00,,CLR,0.01,VWS V14.01,2013-03-21 16:38:00,
2013-03-21 12:43:00,64.7,41.1,29.98,NNE,14,2.0,13.0,42,0.00,,CLR,0.01,VWS V14.01,2013-03-21 16:43:00,
2013-03-21 12:48:00,64.9,39.4,29.97,NNW,341,4.0,13.0,39,0.00,,CLR,0.01,VWS V14.01,2013-03-21 16:48:00,
2013-03-21 12:53:00,64.5,40.9,29.97,North,1,7.0,13.0,42,0.00,,CLR,0.01,VWS V14.01,2013-03-21 16:53:00,
2013-03-21 12:58:00,64.6,41.6,29.97,NE,36,7.0,14.0,43,0.00,,CLR,0.01,VWS V14.01,2013-03-21 16:58:00,
2013-03-21 13:03:00,64.5,40.9,29.96,NNE,23,8.0,12.0,42,0.00,,CLR,0.01,VWS V14.01,2013-03-21 17:03:00,
2013-03-21 13:08:00,64.9,41.9,29.96,NE,39,5.0,12.0,43,0.00,,CLR,0.01,VWS V14.01,2013-03-21 17:08:00,
2013-03-21 13:13:00,65.3,41.0,29.97,NNE,31,7.0,12.0,41,0.00,,CLR,0.01,VWS V14.01,2013-03-21 17:13:00,
2013-03-21 13:18:00,65.2,42.8,29.96,NNE,22,3.0,14.0,44,0.00,,CLR,0.01,VWS V14.01,2013-03-21 17:18:00,
2013-03-21 13:23:00,65.3,42.2,29.96,NE,44,6.0,14.0,43,0.00,,CLR,0.01,VWS V14.01,2013-03-21 17:23:00,
2013-03-21 13:28:00,65.3,42.2,29.96,NNE,20,6.0,15.0,43,0.00,,CLR,0.01,VWS V14.01,2013-03-21 17:28:00,
2013-03-21 13:33:00,64.9,41.9,29.97,NNE,23,8.0,16.0,43,0.00,,CLR,0.01,VWS V14.01,2013-03-21 17:33:00,
2013-03-21 13:38:00,64.8,42.4,29.95,NNE,28,4.0,16.0,44,0.00,,CLR,0.01,VWS V14.01,2013-03-21 17:38:00,
2013-03-21 13:43:00,65.0,40.8,29.96,North,6,5.0,16.0,41,0.00,,CLR,0.01,VWS V14.01,2013-03-21 17:43:00,
2013-03-21 13:48:00,64.9,41.3,29.95,NNE,17,10.0,16.0,42,0.00,,CLR,0.01,VWS V14.01,2013-03-21 17:48:00,
2013-03-21 13:53:00,64.8,41.2,29.95,NNE,32,9.0,16.0,42,0.00,,CLR,0.01,VWS V14.01,2013-03-21 17:53:00,
2013-03-21 13:58:00,64.6,41.6,29.94,ENE,60,4.0,16.0,43,0.00,,CLR,0.01,VWS V14.01,2013-03-21 17:58:00,
2013-03-21 14:03:00,64.9,41.3,29.95,NE,46,6.0,13.0,42,0.00,,CLR,0.01,VWS V14.01,2013-03-21 18:03:00,
2013-03-21 14:08:00,64.5,41.5,29.94,NNE,30,2.0,13.0,43,0.00,,CLR,0.01,VWS V14.01,2013-03-21 18:08:00,
2013-03-21 14:13:00,64.7,41.7,29.94,NE,45,5.0,16.0,43,0.00,,CLR,0.01,VWS V14.01,2013-03-21 18:13:00,
2013-03-21 14:18:00,64.9,41.3,29.94,NE,36,5.0,17.0,42,0.00,,CLR,0.01,VWS V14.01,2013-03-21 18:18:00,
2013-03-21 14:23:00,64.8,41.2,29.93,NE,40,7.0,17.0,42,0.00,,CLR,0.01,VWS V14.01,2013-03-21 18:23:00,
2013-03-21 14:28:00,64.8,41.8,29.93,North,357,4.0,17.0,43,0.00,,CLR,0.01,VWS V14.01,2013-03-21 18:28:00,
2013-03-21 14:33:00,64.6,41.6,29.93,NE,39,6.0,17.0,43,0.00,,CLR,0.01,VWS V14.01,2013-03-21 18:33:00,
2013-03-21 14:38:00,65.0,42.6,29.93,NNE,29,7.0,17.0,44,0.00,,CLR,0.01,VWS V14.01,2013-03-21 18:38:00,
2013-03-21 14:43:00,65.3,43.4,29.93,NE,50,6.0,17.0,45,0.00,,CLR,0.01,VWS V14.01,2013-03-21 18:43:00,
2013-03-21 14:48:00,65.2,41.5,29.92,NE,37,5.0,17.0,42,0.00,,CLR,0.01,VWS V14.01,2013-03-21 18:48:00,
2013-03-21 14:54:00,65.1,42.1,29.93,NE,54,6.0,17.0,43,0.00,,CLR,0.01,VWS V14.01,2013-03-21 18:54:00,
2013-03-21 14:58:00,65.2,42.2,29.93,North,11,3.0,17.0,43,0.00,,CLR,0.01,VWS V14.01,2013-03-21 18:58:00,
2013-03-21 15:03:00,65.5,43.6,29.92,NNE,27,7.0,13.0,45,0.00,,CLR,0.01,VWS V14.01,2013-03-21 19:03:00,
2013-03-21 15:08:00,65.6,42.5,29.92,NE,36,5.0,13.0,43,0.00,,CLR,0.01,VWS V14.01,2013-03-21 19:08:00,
2013-03-21 15:13:00,65.5,44.2,29.91,NE,39,7.0,13.0,46,0.00,,CLR,0.01,VWS V14.01,2013-03-21 19:13:00,
2013-03-21 15:18:00,65.7,42.6,29.91,NE,51,0.0,13.0,43,0.00,,CLR,0.01,VWS V14.01,2013-03-21 19:18:00,
2013-03-21 15:23:00,65.7,42.6,29.90,North,7,6.0,13.0,43,0.00,,CLR,0.01,VWS V14.01,2013-03-21 19:23:00,
2013-03-21 15:29:00,65.4,42.3,29.91,NE,43,9.0,13.0,43,0.00,,CLR,0.01,VWS V14.01,2013-03-21 19:29:00,
2013-03-21 15:33:00,65.4,42.3,29.91,NNE,31,3.0,13.0,43,0.00,,CLR,0.01,VWS V14.01,2013-03-21 19:33:00,
2013-03-21 15:39:00,65.1,42.1,29.90,NE,52,8.0,13.0,43,0.00,,CLR,0.01,VWS V14.01,2013-03-21 19:39:00,
2013-03-21 15:43:00,65.1,43.3,29.90,ENE,60,5.0,13.0,45,0.00,,CLR,0.01,VWS V14.01,2013-03-21 19:43:00,
2013-03-21 15:49:00,65.2,43.3,29.90,NE,34,4.0,13.0,45,0.00,,CLR,0.01,VWS V14.01,2013-03-21 19:49:00,
2013-03-21 15:53:00,65.3,43.4,29.90,NNE,19,0.0,13.0,45,0.00,,CLR,0.01,VWS V14.01,2013-03-21 19:53:00,
2013-03-21 15:59:00,65.4,44.1,29.90,North,1,1.0,13.0,46,0.00,,CLR,0.01,VWS V14.01,2013-03-21 19:59:00,
2013-03-21 16:04:00,65.3,44.0,29.90,ENE,58,6.0,9.0,46,0.00,,CLR,0.01,VWS V14.01,2013-03-21 20:04:00,
2013-03-21 16:09:00,65.2,44.5,29.90,East,98,4.0,10.0,47,0.00,,CLR,0.01,VWS V14.01,2013-03-21 20:09:00,
2013-03-21 16:14:00,65.4,44.1,29.90,NNE,29,3.0,10.0,46,0.00,,CLR,0.01,VWS V14.01,2013-03-21 20:14:00,
2013-03-21 16:19:00,65.3,44.6,29.90,NE,43,2.0,10.0,47,0.00,,CLR,0.01,VWS V14.01,2013-03-21 20:19:00,
2013-03-21 16:24:00,65.2,44.5,29.90,NE,40,7.0,10.0,47,0.00,,CLR,0.01,VWS V14.01,2013-03-21 20:24:00,
2013-03-21 16:29:00,65.3,45.1,29.90,NE,50,6.0,10.0,48,0.00,,CLR,0.01,VWS V14.01,2013-03-21 20:29:00,
2013-03-21 16:34:00,65.2,46.1,29.90,NE,49,3.0,10.0,50,0.00,,CLR,0.01,VWS V14.01,2013-03-21 20:34:00,
2013-03-21 16:39:00,65.1,45.5,29.90,ENE,62,4.0,10.0,49,0.00,,CLR,0.01,VWS V14.01,2013-03-21 20:39:00,
2013-03-21 16:44:00,65.1,45.5,29.90,NNE,22,4.0,10.0,49,0.00,,CLR,0.01,VWS V14.01,2013-03-21 20:44:00,
2013-03-21 16:49:00,64.8,44.7,29.90,NE,41,4.0,10.0,48,0.00,,CLR,0.01,VWS V14.01,2013-03-21 20:49:00,
2013-03-21 16:54:00,64.8,45.7,29.90,ENE,71,0.0,10.0,50,0.00,,CLR,0.01,VWS V14.01,2013-03-21 20:54:00,
2013-03-21 16:59:00,65.0,44.3,29.89,NE,34,5.0,10.0,47,0.00,,CLR,0.01,VWS V14.01,2013-03-21 20:59:00,
2013-03-21 17:04:00,64.8,44.7,29.90,East,98,0.0,7.0,48,0.00,,CLR,0.01,VWS V14.01,2013-03-21 21:04:00,
2013-03-21 17:09:00,64.8,45.2,29.89,NE,39,4.0,8.0,49,0.00,,CLR,0.01,VWS V14.01,2013-03-21 21:09:00,
2013-03-21 17:14:00,64.6,46.1,29.91,SE,125,4.0,8.0,51,0.00,,CLR,0.01,VWS V14.01,2013-03-21 21:14:00,
2013-03-21 17:19:00,64.6,45.6,29.91,East,84,5.0,8.0,50,0.00,,CLR,0.01,VWS V14.01,2013-03-21 21:19:00,
2013-03-21 17:24:00,64.7,45.7,29.89,ENE,77,3.0,8.0,50,0.00,,CLR,0.01,VWS V14.01,2013-03-21 21:24:00,
2013-03-21 17:29:00,64.7,44.6,29.90,ENE,70,3.0,8.0,48,0.00,,CLR,0.01,VWS V14.01,2013-03-21 21:29:00,
2013-03-21 17:34:00,64.9,45.3,29.90,ENE,59,3.0,8.0,49,0.00,,CLR,0.01,VWS V14.01,2013-03-21 21:34:00,
2013-03-21 17:39:00,64.9,44.8,29.90,East,95,6.0,8.0,48,0.00,,CLR,0.01,VWS V14.01,2013-03-21 21:39:00,
2013-03-21 17:44:00,64.9,45.8,29.90,East,79,4.0,8.0,50,0.00,,CLR,0.01,VWS V14.01,2013-03-21 21:44:00,
2013-03-21 17:49:00,64.9,45.3,29.91,NE,47,0.0,8.0,49,0.00,,CLR,0.01,VWS V14.01,2013-03-21 21:49:00,
2013-03-21 17:54:00,64.7,45.7,29.90,NE,50,5.0,8.0,50,0.00,,CLR,0.01,VWS V14.01,2013-03-21 21:54:00,
2013-03-21 17:59:00,64.5,46.0,29.90,NE,38,2.0,8.0,51,0.00,,CLR,0.01,VWS V14.01,2013-03-21 21:59:00,
2013-03-21 18:04:00,64.5,50.3,29.90,NE,53,3.0,6.0,60,0.00,,CLR,0.01,VWS V14.01,2013-03-21 22:04:00,
2013-03-21 18:09:00,64.4,45.9,29.90,NE,41,4.0,6.0,51,0.00,,CLR,0.01,VWS V14.01,2013-03-21 22:09:00,
2013-03-21 18:14:00,64.4,47.4,29.91,ENE,58,0.0,6.0,54,0.00,,CLR,0.01,VWS V14.01,2013-03-21 22:14:00,
2013-03-21 18:19:00,64.4,46.9,29.91,East,97,3.0,6.0,53,0.00,,CLR,0.01,VWS V14.01,2013-03-21 22:19:00,
2013-03-21 18:24:00,64.4,46.4,29.91,NE,35,3.0,6.0,52,0.00,,CLR,0.01,VWS V14.01,2013-03-21 22:24:00,
2013-03-21 18:29:00,64.3,48.8,29.91,NE,45,3.0,6.0,57,0.00,,CLR,0.01,VWS V14.01,2013-03-21 22:29:00,
2013-03-21 18:34:00,64.2,46.7,29.91,ENE,59,0.0,6.0,53,0.00,,CLR,0.01,VWS V14.01,2013-03-21 22:34:00,
2013-03-21 18:39:00,64.1,48.1,29.91,NNE,28,0.0,6.0,56,0.00,,CLR,0.01,VWS V14.01,2013-03-21 22:39:00,
2013-03-21 18:44:00,64.0,46.0,29.92,NNE,18,0.0,6.0,52,0.00,,CLR,0.01,VWS V14.01,2013-03-21 22:44:00,
2013-03-21 18:49:00,63.9,47.0,29.91,ENE,60,0.0,6.0,54,0.00,,CLR,0.01,VWS V14.01,2013-03-21 22:49:00,
2013-03-21 18:54:00,63.7,46.3,29.91,ENE,61,0.0,6.0,53,0.00,,CLR,0.01,VWS V14.01,2013-03-21 22:54:00,
2013-03-21 18:59:00,63.5,45.6,29.92,ENE,67,0.0,6.0,52,0.00,,CLR,0.01,VWS V14.01,2013-03-21 22:59:00,
2013-03-21 19:04:00,63.4,47.5,29.92,ENE,63,0.0,1.0,56,0.00,,CLR,0.01,VWS V14.01,2013-03-21 23:04:00,
2013-03-21 19:09:00,63.3,47.3,29.93,ENE,62,0.0,1.0,56,0.00,,CLR,0.01,VWS V14.01,2013-03-21 23:09:00,
2013-03-21 19:14:00,63.1,47.6,29.92,ENE,60,0.0,1.0,57,0.00,,CLR,0.01,VWS V14.01,2013-03-21 23:14:00,
2013-03-21 19:19:00,63.0,48.9,29.92,ENE,57,0.0,1.0,60,0.00,,CLR,0.01,VWS V14.01,2013-03-21 23:19:00,
2013-03-21 19:24:00,63.0,48.9,29.93,ENE,59,0.0,1.0,60,0.00,,CLR,0.01,VWS V14.01,2013-03-21 23:24:00,
2013-03-21 19:29:00,63.0,48.5,29.93,ENE,59,0.0,1.0,59,0.00,,CLR,0.01,VWS V14.01,2013-03-21 23:29:00,
2013-03-21 19:34:00,63.0,48.5,29.92,ENE,59,0.0,1.0,59,0.00,,CLR,0.01,VWS V14.01,2013-03-21 23:34:00,
2013-03-21 19:39:00,63.0,48.9,29.92,ENE,59,0.0,1.0,60,0.00,,CLR,0.01,VWS V14.01,2013-03-21 23:39:00,
2013-03-21 19:44:00,62.9,47.0,29.92,ENE,68,0.0,1.0,56,0.00,,CLR,0.01,VWS V14.01,2013-03-21 23:44:00,
2013-03-21 19:49:00,62.9,47.5,29.92,ENE,64,0.0,1.0,57,0.00,,CLR,0.01,VWS V14.01,2013-03-21 23:49:00,
2013-03-21 19:54:00,62.8,47.8,29.93,ENE,64,0.0,1.0,58,0.00,,CLR,0.01,VWS V14.01,2013-03-21 23:54:00,
2013-03-21 19:59:00,62.6,48.1,29.92,ENE,65,0.0,1.0,59,0.00,,CLR,0.01,VWS V14.01,2013-03-21 23:59:00,
2013-03-21 20:04:00,62.5,48.0,29.92,ENE,62,0.0,0.0,59,0.00,,CLR,0.01,VWS V14.01,2013-03-22 00:04:00,
2013-03-21 20:09:00,62.3,47.8,29.92,ENE,63,0.0,0.0,59,0.00,,CLR,0.01,VWS V14.01,2013-03-22 00:09:00,
2013-03-21 20:14:00,62.1,47.6,29.92,ENE,65,0.0,0.0,59,0.00,,CLR,0.01,VWS V14.01,2013-03-22 00:14:00,
2013-03-21 20:19:00,61.9,47.9,29.93,ENE,64,0.0,0.0,60,0.00,,CLR,0.01,VWS V14.01,2013-03-22 00:19:00,
2013-03-21 20:24:00,61.7,47.7,29.92,ENE,65,0.0,0.0,60,0.00,,CLR,0.01,VWS V14.01,2013-03-22 00:24:00,
2013-03-21 20:29:00,61.2,48.1,29.93,ENE,66,0.0,0.0,62,0.00,,CLR,0.01,VWS V14.01,2013-03-22 00:29:00,
2013-03-21 20:34:00,61.0,47.0,29.93,ENE,65,0.0,0.0,60,0.00,,CLR,0.01,VWS V14.01,2013-03-22 00:34:00,
2013-03-21 20:39:00,60.8,47.3,29.94,ENE,64,0.0,0.0,61,0.00,,CLR,0.01,VWS V14.01,2013-03-22 00:39:00,
2013-03-21 20:44:00,60.4,46.9,29.93,ENE,65,0.0,0.0,61,0.00,,CLR,0.01,VWS V14.01,2013-03-22 00:44:00,
2013-03-21 20:49:00,60.0,47.8,29.94,ENE,60,0.0,0.0,64,0.00,,CLR,0.01,VWS V14.01,2013-03-22 00:49:00,
2013-03-21 20:54:00,59.7,46.7,29.93,ENE,68,0.0,0.0,62,0.00,,CLR,0.01,VWS V14.01,2013-03-22 00:54:00,
2013-03-21 20:59:00,59.5,47.3,29.94,ENE,63,0.0,0.0,64,0.00,,CLR,0.01,VWS V14.01,2013-03-22 00:59:00,
2013-03-21 21:04:00,59.3,47.1,29.94,ENE,63,0.0,0.0,64,0.00,,CLR,0.01,VWS V14.01,2013-03-22 01:04:00,
2013-03-21 21:09:00,59.1,47.0,29.94,ENE,64,0.0,0.0,64,0.00,,CLR,0.01,VWS V14.01,2013-03-22 01:09:00,
2013-03-21 21:14:00,59.0,46.8,29.94,ENE,64,0.0,0.0,64,0.00,,CLR,0.01,VWS V14.01,2013-03-22 01:14:00,
2013-03-21 21:19:00,58.8,47.1,29.94,ENE,63,0.0,0.0,65,0.00,,CLR,0.01,VWS V14.01,2013-03-22 01:19:00,
2013-03-21 21:24:00,58.6,46.5,29.94,ENE,67,0.0,0.0,64,0.00,,CLR,0.01,VWS V14.01,2013-03-22 01:24:00,
2013-03-21 21:29:00,58.4,47.1,29.95,ENE,63,0.0,0.0,66,0.00,,CLR,0.01,VWS V14.01,2013-03-22 01:29:00,
2013-03-21 21:34:00,58.2,46.5,29.94,ENE,68,0.0,0.0,65,0.00,,CLR,0.01,VWS V14.01,2013-03-22 01:34:00,
2013-03-21 21:39:00,58.0,46.3,29.94,ENE,68,0.0,0.0,65,0.00,,CLR,0.01,VWS V14.01,2013-03-22 01:39:00,
2013-03-21 21:44:00,57.8,46.5,29.95,ENE,64,0.0,0.0,66,0.00,,CLR,0.01,VWS V14.01,2013-03-22 01:44:00,
2013-03-21 21:49:00,57.7,46.8,29.95,ENE,65,0.0,0.0,67,0.00,,CLR,0.01,VWS V14.01,2013-03-22 01:49:00,
2013-03-21 21:54:00,57.5,46.6,29.96,ENE,65,0.0,0.0,67,0.00,,CLR,0.01,VWS V14.01,2013-03-22 01:54:00,
2013-03-21 21:59:00,57.4,46.2,29.96,ENE,68,0.0,0.0,66,0.00,,CLR,0.01,VWS V14.01,2013-03-22 01:59:00,
2013-03-21 22:04:00,57.3,46.0,29.96,ENE,68,0.0,0.0,66,0.00,,CLR,0.01,VWS V14.01,2013-03-22 02:04:00,
2013-03-21 22:09:00,57.1,46.3,29.96,ENE,68,0.0,0.0,67,0.00,,CLR,0.01,VWS V14.01,2013-03-22 02:09:00,
2013-03-21 22:14:00,57.0,46.2,29.96,ENE,67,0.0,0.0,67,0.00,,CLR,0.01,VWS V14.01,2013-03-22 02:14:00,
2013-03-21 22:19:00,56.9,46.1,29.96,ENE,68,0.0,0.0,67,0.00,,CLR,0.01,VWS V14.01,2013-03-22 02:19:00,
2013-03-21 22:24:00,56.8,46.4,29.96,ENE,68,0.0,0.0,68,0.00,,CLR,0.01,VWS V14.01,2013-03-22 02:24:00,
2013-03-21 22:29:00,56.7,46.3,29.96,ENE,68,0.0,0.0,68,0.00,,CLR,0.01,VWS V14.01,2013-03-22 02:29:00,
2013-03-21 22:34:00,56.6,46.2,29.97,ENE,68,0.0,0.0,68,0.00,,CLR,0.01,VWS V14.01,2013-03-22 02:34:00,
2013-03-21 22:39:00,56.5,46.5,29.97,ENE,68,0.0,0.0,69,0.00,,CLR,0.01,VWS V14.01,2013-03-22 02:39:00,
2013-03-21 22:44:00,56.3,46.3,29.96,ENE,68,0.0,0.0,69,0.00,,CLR,0.01,VWS V14.01,2013-03-22 02:44:00,
2013-03-21 22:49:00,56.3,46.3,29.96,ENE,67,0.0,0.0,69,0.00,,CLR,0.01,VWS V14.01,2013-03-22 02:49:00,
2013-03-21 22:54:00,56.2,46.6,29.96,ENE,67,0.0,0.0,70,0.00,,CLR,0.01,VWS V14.01,2013-03-22 02:54:00,
2013-03-21 22:59:00,56.0,46.4,29.95,ENE,67,0.0,0.0,70,0.00,,CLR,0.01,VWS V14.01,2013-03-22 02:59:00,
2013-03-21 23:04:00,55.9,46.3,29.95,ENE,67,0.0,0.0,70,0.00,,CLR,0.01,VWS V14.01,2013-03-22 03:04:00,
2013-03-21 23:09:00,55.8,46.2,29.95,ENE,68,0.0,0.0,70,0.00,,CLR,0.01,VWS V14.01,2013-03-22 03:09:00,
2013-03-21 23:14:00,55.7,46.1,29.95,ENE,67,0.0,0.0,70,0.00,,CLR,0.01,VWS V14.01,2013-03-22 03:14:00,
2013-03-21 23:19:00,55.6,46.0,29.95,ENE,68,0.0,0.0,70,0.00,,CLR,0.01,VWS V14.01,2013-03-22 03:19:00,
2013-03-21 23:24:00,55.5,45.9,29.96,ENE,68,0.0,0.0,70,0.00,,CLR,0.01,VWS V14.01,2013-03-22 03:24:00,
2013-03-21 23:29:00,55.4,45.8,29.96,ENE,68,0.0,0.0,70,0.00,,CLR,0.01,VWS V14.01,2013-03-22 03:29:00,
2013-03-21 23:34:00,55.2,45.6,29.95,ENE,68,0.0,0.0,70,0.00,,CLR,0.01,VWS V14.01,2013-03-22 03:34:00,
2013-03-21 23:39:00,55.1,45.5,29.95,ENE,68,0.0,0.0,70,0.00,,CLR,0.01,VWS V14.01,2013-03-22 03:39:00,
2013-03-21 23:44:00,55.0,45.4,29.96,ENE,68,0.0,0.0,70,0.00,,CLR,0.01,VWS V14.01,2013-03-22 03:44:00,
2013-03-21 23:49:00,54.9,45.7,29.96,ENE,68,0.0,0.0,71,0.00,,CLR,0.01,VWS V14.01,2013-03-22 03:49:00,
2013-03-21 23:54:00,54.8,45.6,29.96,East,86,0.0,1.0,71,0.00,,CLR,0.01,VWS V14.01,2013-03-22 03:54:00,
2013-03-21 23:59:00,54.8,46.3,29.97,East,84,0.0,1.0,73,0.00,,CLR,0.00,VWS V14.01,2013-03-22 03:59:00,